OBJECT B, 61180

Orbit data source: Space-Track

You're viewing an Uncataloged Satellite

Recently launched and/or uncataloged satellites may have evolving metadata. Metadata may include but not limited to: Owner, Maufacturer, Bus, Motor, and Mission.

OBJECT B, 61180 is a satellite owned by MO RF (CIS) in SSO that was launched on Tue, 17 Sep 2024 UTC via an ANGARA-1.2 launch vehicle from the Plesetsk Missile And Space Complex (PKMTR). Unknown objects in Earth's orbit typically refer to objects detected orbiting the Earth but have not yet been identified or cataloged. These objects could be anything from previously untracked satellites, spent rocket stages, debris from satellite collisions, or even natural meteoroids temporarily captured by Earth's gravity.

Loading next visibility...
Identifier
61180, 2024-166B
Orbit
SSO
Country
Flag of CISCIS
Related business
Manufacturer
VNIIEMI?
Mission
Operational Defense Imaging
Bus & Motor
OO-MKA, Unknown motor
Mass
520 kg wet, ~500 kg dry
Launch date (UTC)
2024-09-17 (2 years ago)
Launch vehicle
ANGARA-1.2
Launch site
Plesetsk Missile And Space Complex (PKMTR)
Object type
Unknown
Shape & HBR
Cyl + 2 Pan, 1.5 m
Radar Cross Section
3.727 m², Large (>1 m²)

Expand to show TLE details & history
Last TLE update: 1 day ago

TLE from 1 day ago
0 OBJECT B
1 61180U 24166B   26170.82748453  .00018355  00000-0  12191-3 0  9991
2 61180  96.6785  61.9327 0000726 207.5611 152.5618 15.75503492101151
Epoch: 2026-06-19T19:51Z
TLE epoch observation values (Epoch: 2026-06-19T19:51:34.663Z)
Latitude
0.00002°
Longitude
-144.0126°
Altitude
346.817 km
Speed
7.701 km/s
True Right ascension
04h 07m 43s
True Declination
0° 00' 00"
Sunlit
Object was in daylight at epoch
Visualization orbit readout
Latitude
Unknown
Longitude
Unknown
Altitude
Unknown
Speed
Unknown
Apparent Right ascension
Unknown
Apparent Declination
Unknown
Sunlit
N/A
Visualization observer readout
Local Sidereal Time
07:24:23
Azimuth
Unknown
Elevation
Unknown
Doppler factor
Unknown
Orbital elements
Apogee altitude
340.548 km
Perigee altitude
339.573 km
Semi-major axis
6,718.198 km
Eccentricity
0.00007
Inclination
96.6785°
RAAN
61.9327°
Arg. of periapsis
207.5611°
True anomaly
152.56563°
Mean anomaly
152.5618°
Eccentric anomaly
152.56372°
Mean motion
3.94152 °/min
Orbital period
91.34 mins
BSTAR
0.00012191
Loading maneuver chart data...
Computing Atmospheric mass density...
Loading historical data...
Loading historical data...
Loading historical data...
Loading historical data...
Loading historical data...
Loading historical data...
Loading historical data...
Other satellites on launch #166 in the year 2024 (2024-09-17 UTC)

Documentation

Showing up to 5 results
|